Weather reports worldwide

Advertisment
Wilkes-Barre/Scrant PA, United States of America (72513): temperature & dewpoint: 14.02.2018 00:00:00 - 20.02.2018 00:00:00 (EST)Wilkes-Barre/Scrant PA, United States of America (72513): wind speed & gusts: 14.02.2018 00:00:00 - 20.02.2018 00:00:00 (EST)Wilkes-Barre/Scrant PA, United States of America (72513): wind direction: 14.02.2018 00:00:00 - 20.02.2018 00:00:00 (EST)Wilkes-Barre/Scrant PA, United States of America (72513): reduced air pressure: 14.02.2018 00:00:00 - 20.02.2018 00:00:00 (EST)Wilkes-Barre/Scrant PA, United States of America (72513): visibility: 14.02.2018 00:00:00 - 20.02.2018 00:00:00 (EST)Wilkes-Barre/Scrant PA, United States of America (72513): precipitation: 14.02.2018 00:00:00 - 20.02.2018 00:00:00 (EST)
Date & Time tt [°C] td [°C] ff [km/h] ff [kn] fx [km/h] fx [kn] dd ppp [hPa] vv [km] rr [mm]
20.02.2018 00:00:00 5,0 4,4 5 3 - - WSW 1025,4 10 -
19.02.2018 23:00:00 6,1 5,0 8 4 - - SW 1024,9 15 -
19.02.2018 22:00:00 6,1 5,0 5 3 - - SSW 1025,2 16 0,0
19.02.2018 21:00:00 6,1 5,0 11 6 - - SSW 1026,2 16 0,0
19.02.2018 20:00:00 6,7 5,0 13 7 - - SSW 1026,1 16 0,3
19.02.2018 19:00:00 5,6 4,4 5 3 - - - 1026,2 11 0,0
19.02.2018 18:00:00 5,0 3,9 11 6 - - WSW 1025,4 13 0,3
19.02.2018 17:00:00 5,0 3,3 15 8 - - SW 1025,4 10 0,5
19.02.2018 16:00:00 4,4 2,8 16 9 - - SSW 1026,0 13 0,0
19.02.2018 15:00:00 4,4 2,2 13 7 - - SSW 1026,1 10 0,0
19.02.2018 14:00:00 4,4 1,1 15 8 - - SSW 1027,1 13 0,0
19.02.2018 13:00:00 3,9 0,0 13 7 - - S 1027,3 13 0,0
19.02.2018 12:00:00 3,9 -1,1 11 6 - - SSW 1028,9 13 -
19.02.2018 11:00:00 4,4 -1,7 11 6 - - SW 1029,5 15 -
19.02.2018 10:00:00 3,3 -2,2 11 6 - - SSW 1030,7 13 0,0
19.02.2018 09:00:00 3,3 -2,8 9 5 - - - 1029,5 13 -
19.02.2018 08:00:00 1,7 -3,3 8 4 - - - 1030,8 13 -
19.02.2018 07:00:00 1,1 -3,9 9 5 - - SW 1030,2 15 0,0
19.02.2018 06:00:00 2,2 -3,9 15 8 - - WSW 1029,9 16 -
19.02.2018 05:00:00 1,1 -4,4 5 3 - - SW 1030,4 16 -
19.02.2018 04:00:00 2,2 -4,4 - - - - - 1029,8 16 0,0
19.02.2018 03:00:00 1,7 -4,4 9 5 - - SSW 1030,3 16 -
19.02.2018 02:00:00 -1,7 -5,0 5 3 - - SSW 1030,8 15 -
19.02.2018 01:00:00 -1,7 -5,6 0 0 - - N 1030,3 16 0,0
19.02.2018 00:00:00 -1,1 -5,0 0 0 - - N 1030,9 16 -
18.02.2018 23:00:00 -0,6 -5,0 11 6 - - E 1031,6 16 -
18.02.2018 22:00:00 -0,6 -5,0 8 4 - - ESE 1031,6 16 0,0
18.02.2018 21:00:00 0,0 -5,0 9 5 - - NE 1031,4 16 -
18.02.2018 20:00:00 0,6 -5,0 0 0 - - N 1031,0 16 -
18.02.2018 19:00:00 0,6 -4,4 5 3 - - ESE 1030,2 16 0,0
18.02.2018 18:00:00 2,8 -5,0 0 0 - - N 1029,8 16 -
18.02.2018 17:00:00 4,4 -5,6 0 0 - - N 1029,3 16 -
18.02.2018 16:00:00 5,0 -5,0 5 3 - - - 1028,7 16 0,0
18.02.2018 15:00:00 3,9 -5,6 8 4 - - E 1028,2 16 -
18.02.2018 14:00:00 3,3 -5,0 11 6 - - NE 1027,9 16 -
18.02.2018 13:00:00 3,3 -5,0 21 11 - - NNW 1027,9 16 0,0
18.02.2018 12:00:00 1,7 -5,0 22 12 - - N 1027,8 16 -
18.02.2018 11:00:00 1,1 -5,0 16 9 - - NNW 1026,9 16 -
18.02.2018 10:00:00 1,1 -5,0 16 9 - - NNW 1025,9 16 0,0
18.02.2018 09:00:00 0,0 -5,0 24 13 - - NNW 1024,5 15 -
18.02.2018 08:00:00 -0,6 -4,4 8 4 - - - 1023,2 15 -
18.02.2018 07:00:00 -1,7 -3,3 5 3 - - WSW 1023,2 13 -
18.02.2018 06:00:00 -1,1 -2,8 9 5 - - SSW 1021,0 13 -
18.02.2018 05:00:00 -1,1 -2,2 13 7 - - SW 1019,7 11 -
18.02.2018 04:00:00 -1,1 -2,2 13 7 - - SW 1017,0 11 0,0
18.02.2018 03:00:00 -1,1 -1,7 11 6 - - WSW 1015,9 6 0,0
18.02.2018 02:00:00 -1,1 -1,7 9 5 - - WSW 1014,7 10 -
18.02.2018 01:00:00 -1,1 -1,7 5 3 - - SW 1014,4 10 0,0
18.02.2018 00:00:00 -1,1 -1,7 0 0 - - N 1015,5 4,0 0,0
17.02.2018 23:00:00 -1,1 -1,7 0 0 - - N 1016,6 3,2 0,3
17.02.2018 22:00:00 -1,1 -1,7 0 0 - - N 1017,8 2,0 1,3
17.02.2018 21:00:00 -1,1 -1,7 5 3 - - NNW 1018,4 1,2 0,3
17.02.2018 20:00:00 -0,6 -2,8 5 3 - - - 1017,6 3,2 0,0
17.02.2018 19:00:00 -1,1 -2,2 0 0 - - N 1020,2 1,6 1,5
17.02.2018 18:00:00 -1,7 -2,2 0 0 - - N 1021,1 1,2 1,3
17.02.2018 17:00:00 -1,1 -2,2 0 0 - - N 1021,8 2,0 0,3
17.02.2018 16:00:00 1,1 -7,2 5 3 - - - 1021,6 16 0,0
17.02.2018 15:00:00 1,1 -7,8 11 6 - - - 1022,1 16 -
17.02.2018 14:00:00 1,1 -8,9 18 10 - - S 1023,7 16 -
17.02.2018 13:00:00 2,2 -10,0 16 9 - - S 1023,4 16 0,0
17.02.2018 12:00:00 1,7 -7,2 9 5 - - W 1024,8 16 -
17.02.2018 11:00:00 0,6 -7,2 9 5 - - W 1026,3 16 -
17.02.2018 10:00:00 -2,2 -8,9 5 3 - - SE 1027,5 16 0,0
17.02.2018 09:00:00 -3,9 -9,4 8 4 - - - 1027,9 16 -
17.02.2018 08:00:00 -5,6 -9,4 5 3 - - ESE 1028,3 16 -
17.02.2018 07:00:00 -6,7 -9,4 5 3 - - ESE 1028,2 16 0,0
17.02.2018 06:00:00 -5,6 -9,4 9 5 - - NNE 1027,3 16 -
17.02.2018 05:00:00 -5,0 -10,0 5 3 - - N 1027,7 16 -
17.02.2018 04:00:00 -5,0 -10,0 9 5 - - NNW 1026,7 16 0,0
17.02.2018 03:00:00 -4,4 -9,4 9 5 - - NW 1025,9 16 -
17.02.2018 02:00:00 -3,9 -10,0 11 6 - - N 1025,0 16 -
17.02.2018 01:00:00 -3,3 -8,9 11 6 - - N 1023,9 16 0,0
17.02.2018 00:00:00 -2,2 -10,0 28 15 - - NNW 1023,0 16 -
16.02.2018 23:00:00 -1,1 -10,0 21 11 - - N 1022,4 16 -
16.02.2018 22:00:00 -0,6 -6,7 18 10 - - N 1021,0 16 0,0
16.02.2018 21:00:00 0,0 -6,1 15 8 - - N 1019,8 16 -
16.02.2018 20:00:00 1,1 -5,6 15 8 - - NW 1018,0 16 -
16.02.2018 19:00:00 2,2 -4,4 28 15 - - NNW 1016,8 16 -
16.02.2018 18:00:00 2,8 -2,2 26 14 - - NW 1014,5 16 -
16.02.2018 17:00:00 3,3 -1,1 26 14 - - NNW 1012,3 16 -
16.02.2018 16:00:00 4,4 1,1 21 11 57 31 N 1010,6 11 0,0
16.02.2018 15:00:00 6,1 3,9 31 17 48 26 NNW 1008,1 8 1,8
16.02.2018 14:00:00 7,8 5,0 18 10 - - NNW 1006,7 4,8 0,5
16.02.2018 13:00:00 9,4 6,1 15 8 - - W 1005,3 16 0,3
16.02.2018 12:00:00 10,0 8,3 15 8 - - SW 1004,9 13 0,0
16.02.2018 11:00:00 10,0 9,4 11 6 - - SW 1004,7 15 -
16.02.2018 10:00:00 9,4 9,4 9 5 - - W 1004,2 10 -
16.02.2018 09:00:00 9,4 8,9 13 7 - - WSW 1003,7 6 -
16.02.2018 08:00:00 8,3 8,3 0 0 - - N 1004,0 0,8 0,3
16.02.2018 07:00:00 8,3 8,3 0 0 - - N 1003,8 2,0 0,8
16.02.2018 06:00:00 8,3 8,3 0 0 - - N 1003,0 1,2 0,3
16.02.2018 05:00:00 9,4 8,3 0 0 - - N 1002,8 11 1,8
16.02.2018 04:00:00 10,0 8,3 5 3 48 26 N 1003,1 8 0,3
16.02.2018 03:00:00 9,4 8,9 18 10 48 26 N 1001,9 4,8 1,0
16.02.2018 02:00:00 11,1 11,1 0 0 - - N 1002,0 0,4 0,0
16.02.2018 01:00:00 11,7 11,7 5 3 - - SSW 1002,0 4,8 0,3
16.02.2018 00:00:00 11,7 11,7 0 0 - - N 1003,1 4,0 0,0
15.02.2018 23:00:00 12,2 11,7 5 3 - - SW 1003,6 11 0,0
15.02.2018 22:00:00 12,8 11,1 0 0 - - N 1004,9 15 0,0
15.02.2018 21:00:00 13,9 11,7 5 3 - - WSW 1004,9 16 0,0
15.02.2018 20:00:00 12,8 10,6 5 3 - - S 1006,2 15 0,0
15.02.2018 19:00:00 13,3 10,6 5 3 - - SSW 1006,8 16 0,0
15.02.2018 18:00:00 12,2 10,0 0 0 - - N 1006,8 16 -
15.02.2018 17:00:00 14,4 10,6 0 0 - - N 1006,0 15 -
15.02.2018 16:00:00 15,6 10,6 0 0 - - N 1007,1 15 0,0
15.02.2018 15:00:00 13,3 10,6 9 5 - - WNW 1007,4 15 -
15.02.2018 14:00:00 12,2 10,0 11 6 - - SW 1007,9 13 -
15.02.2018 13:00:00 9,4 9,4 13 7 - - WSW 1009,2 6 -
15.02.2018 12:00:00 8,9 8,3 13 7 - - SW 1010,3 6 -
15.02.2018 11:00:00 6,7 6,7 5 3 - - - 1011,2 0,4 -
15.02.2018 10:00:00 6,1 6,1 5 3 - - SW 1011,6 0,4 -
15.02.2018 09:00:00 4,4 4,4 8 4 - - W 1011,9 0,4 0,0
15.02.2018 08:00:00 4,4 4,4 0 0 - - N 1012,1 0,4 0,0
15.02.2018 07:00:00 3,9 3,9 0 0 - - N 1012,1 2,0 -
15.02.2018 06:00:00 3,9 3,9 0 0 - - N 1012,9 4,8 -
15.02.2018 05:00:00 3,9 3,9 0 0 - - N 1013,2 2,0 -
15.02.2018 04:00:00 3,3 3,3 5 3 - - ENE 1013,7 0,4 -
15.02.2018 03:00:00 3,9 3,9 0 0 - - N 1014,1 0,4 0,3
15.02.2018 02:00:00 3,9 3,3 5 3 - - NNE 1015,4 1,2 0,5
15.02.2018 01:00:00 3,9 3,3 0 0 - - N 1015,8 0,8 0,0
15.02.2018 00:00:00 4,4 3,9 5 3 - - SW 1016,3 8 1,0
14.02.2018 23:00:00 5,0 3,9 0 0 - - N 1016,8 8 0,3
14.02.2018 22:00:00 5,0 3,9 0 0 - - N 1017,8 10 1,0
14.02.2018 21:00:00 5,6 2,2 0 0 - - N 1018,5 15 -
14.02.2018 20:00:00 5,6 1,7 9 5 - - SW 1019,0 15 -
14.02.2018 19:00:00 4,4 1,1 0 0 - - N 1019,3 11 -
14.02.2018 18:00:00 5,6 1,1 0 0 - - N 1019,7 15 -
14.02.2018 17:00:00 6,1 1,1 11 6 - - W 1020,1 13 -
14.02.2018 16:00:00 6,7 1,1 16 9 - - WSW 1020,8 13 0,0
14.02.2018 15:00:00 6,7 0,6 13 7 - - SW 1021,5 13 -
14.02.2018 14:00:00 5,6 0,0 11 6 - - SW 1022,4 11 -
14.02.2018 13:00:00 4,4 -0,6 8 4 - - WSW 1023,7 11 0,0
14.02.2018 12:00:00 3,9 -1,1 11 6 - - SW 1024,4 11 -
14.02.2018 11:00:00 3,3 -1,1 15 8 - - WSW 1025,1 10 -
14.02.2018 10:00:00 1,7 -1,7 8 4 - - SW 1026,0 8 0,0
14.02.2018 09:00:00 1,7 -1,7 9 5 - - WSW 1026,4 8 -
14.02.2018 08:00:00 0,6 -2,2 11 6 - - SW 1026,4 8 -
14.02.2018 07:00:00 0,6 -2,2 5 3 - - S 1026,7 11 -
14.02.2018 06:00:00 0,0 -2,2 0 0 - - N 1027,2 11 -
14.02.2018 05:00:00 0,0 -2,8 0 0 - - N 1027,7 13 -
14.02.2018 04:00:00 0,0 -3,3 5 3 - - SSW 1028,0 13 0,3
14.02.2018 03:00:00 0,0 -3,3 13 7 - - SW 1029,4 10 0,3
14.02.2018 02:00:00 0,6 -5,6 11 6 - - S 1030,1 15 0,0
14.02.2018 01:00:00 0,0 -6,1 5 3 - - - 1031,2 15 0,0
14.02.2018 00:00:00 0,0 -6,7 13 7 - - SSW 1032,5 16 -

tt = temperature
td = dewpoint
ff = wind speed
fx = gusts
dd = wind direction
ppp = reduced air pressure
vv = visibility
rr = precipitation

Next stations